<?xml version="1.0"?>
<gpx xmlns="http://www.topografix.com/GPX/1/1" xmlns:xsi="http://www.w3.org/2001/XMLSchema-instance" version="1.1" creator="GPX RubyGem 1.0.0 -- http://dougfales.github.io/gpx/" xsi:schemaLocation="http://www.topografix.com/GPX/1/1 http://www.topografix.com/GPX/1/1/gpx.xsd">
  <metadata>
    <name/>
    <time>2026-05-08T03:36:56+00:00</time>
    <bound minlat="90.0" minlon="180.0" maxlat="-90.0" maxlon="-180.0"/>
  </metadata>
  <trk>
    <name/>
    <trkseg>
      <trkpt lat="46.060029" lon="7.935197">
        <time>1970-01-01T00:00:00+00:00</time>
        <ele>3024.0</ele>
      </trkpt>
      <trkpt lat="46.060019" lon="7.935631">
        <time>1970-01-01T00:00:00+00:00</time>
        <ele>3018.0</ele>
      </trkpt>
      <trkpt lat="46.059968" lon="7.935637">
        <time>1970-01-01T00:00:00+00:00</time>
        <ele>3016.0</ele>
      </trkpt>
      <trkpt lat="46.058872" lon="7.933833">
        <time>1970-01-01T00:00:00+00:00</time>
        <ele>2972.0</ele>
      </trkpt>
      <trkpt lat="46.058821" lon="7.93393">
        <time>1970-01-01T00:00:00+00:00</time>
        <ele>2966.0</ele>
      </trkpt>
      <trkpt lat="46.05876" lon="7.93388">
        <time>1970-01-01T00:00:00+00:00</time>
        <ele>2961.0</ele>
      </trkpt>
      <trkpt lat="46.058444" lon="7.932583">
        <time>1970-01-01T00:00:00+00:00</time>
        <ele>2955.0</ele>
      </trkpt>
      <trkpt lat="46.058067" lon="7.931495">
        <time>1970-01-01T00:00:00+00:00</time>
        <ele>2942.0</ele>
      </trkpt>
      <trkpt lat="46.05737" lon="7.930283">
        <time>1970-01-01T00:00:00+00:00</time>
        <ele>2942.0</ele>
      </trkpt>
      <trkpt lat="46.056702" lon="7.929988">
        <time>1970-01-01T00:00:00+00:00</time>
        <ele>2940.0</ele>
      </trkpt>
      <trkpt lat="46.056535" lon="7.929935">
        <time>1970-01-01T00:00:00+00:00</time>
        <ele>2939.0</ele>
      </trkpt>
      <trkpt lat="46.056534" lon="7.929982">
        <time>1970-01-01T00:00:00+00:00</time>
        <ele>2937.0</ele>
      </trkpt>
      <trkpt lat="46.055567" lon="7.929333">
        <time>1970-01-01T00:00:00+00:00</time>
        <ele>2934.0</ele>
      </trkpt>
      <trkpt lat="46.05493" lon="7.92849">
        <time>1970-01-01T00:00:00+00:00</time>
        <ele>2922.0</ele>
      </trkpt>
      <trkpt lat="46.054327" lon="7.927906">
        <time>1970-01-01T00:00:00+00:00</time>
        <ele>2920.0</ele>
      </trkpt>
      <trkpt lat="46.054147" lon="7.927809">
        <time>1970-01-01T00:00:00+00:00</time>
        <ele>2925.0</ele>
      </trkpt>
      <trkpt lat="46.053881" lon="7.927962">
        <time>1970-01-01T00:00:00+00:00</time>
        <ele>2932.0</ele>
      </trkpt>
      <trkpt lat="46.053368" lon="7.928423">
        <time>1970-01-01T00:00:00+00:00</time>
        <ele>2934.0</ele>
      </trkpt>
      <trkpt lat="46.05287" lon="7.928369">
        <time>1970-01-01T00:00:00+00:00</time>
        <ele>2933.0</ele>
      </trkpt>
      <trkpt lat="46.052288" lon="7.928127">
        <time>1970-01-01T00:00:00+00:00</time>
        <ele>2933.0</ele>
      </trkpt>
      <trkpt lat="46.051914" lon="7.928191">
        <time>1970-01-01T00:00:00+00:00</time>
        <ele>2936.0</ele>
      </trkpt>
      <trkpt lat="46.051744" lon="7.928108">
        <time>1970-01-01T00:00:00+00:00</time>
        <ele>2938.0</ele>
      </trkpt>
      <trkpt lat="46.051276" lon="7.926757">
        <time>1970-01-01T00:00:00+00:00</time>
        <ele>2949.0</ele>
      </trkpt>
      <trkpt lat="46.051054" lon="7.925773">
        <time>1970-01-01T00:00:00+00:00</time>
        <ele>2961.0</ele>
      </trkpt>
      <trkpt lat="46.050592" lon="7.925064">
        <time>1970-01-01T00:00:00+00:00</time>
        <ele>2968.0</ele>
      </trkpt>
      <trkpt lat="46.050342" lon="7.924943">
        <time>1970-01-01T00:00:00+00:00</time>
        <ele>2972.0</ele>
      </trkpt>
      <trkpt lat="46.050174" lon="7.92446">
        <time>1970-01-01T00:00:00+00:00</time>
        <ele>2980.0</ele>
      </trkpt>
      <trkpt lat="46.05004" lon="7.923817">
        <time>1970-01-01T00:00:00+00:00</time>
        <ele>2988.0</ele>
      </trkpt>
      <trkpt lat="46.049961" lon="7.923047">
        <time>1970-01-01T00:00:00+00:00</time>
        <ele>2999.0</ele>
      </trkpt>
      <trkpt lat="46.048446" lon="7.917416">
        <time>1970-01-01T00:00:00+00:00</time>
        <ele>3058.0</ele>
      </trkpt>
      <trkpt lat="46.048409" lon="7.91687">
        <time>1970-01-01T00:00:00+00:00</time>
        <ele>3068.0</ele>
      </trkpt>
      <trkpt lat="46.048434" lon="7.916898">
        <time>1970-01-01T00:00:00+00:00</time>
        <ele>3067.0</ele>
      </trkpt>
      <trkpt lat="46.048353" lon="7.916595">
        <time>1970-01-01T00:00:00+00:00</time>
        <ele>3074.0</ele>
      </trkpt>
      <trkpt lat="46.047493" lon="7.915175">
        <time>1970-01-01T00:00:00+00:00</time>
        <ele>3100.0</ele>
      </trkpt>
      <trkpt lat="46.047184" lon="7.914553">
        <time>1970-01-01T00:00:00+00:00</time>
        <ele>3110.0</ele>
      </trkpt>
      <trkpt lat="46.046759" lon="7.91397">
        <time>1970-01-01T00:00:00+00:00</time>
        <ele>3119.0</ele>
      </trkpt>
      <trkpt lat="46.045254" lon="7.911601">
        <time>1970-01-01T00:00:00+00:00</time>
        <ele>3143.0</ele>
      </trkpt>
      <trkpt lat="46.044937" lon="7.911234">
        <time>1970-01-01T00:00:00+00:00</time>
        <ele>3151.0</ele>
      </trkpt>
      <trkpt lat="46.044673" lon="7.911049">
        <time>1970-01-01T00:00:00+00:00</time>
        <ele>3158.0</ele>
      </trkpt>
      <trkpt lat="46.044503" lon="7.910676">
        <time>1970-01-01T00:00:00+00:00</time>
        <ele>3162.0</ele>
      </trkpt>
      <trkpt lat="46.044184" lon="7.910258">
        <time>1970-01-01T00:00:00+00:00</time>
        <ele>3170.0</ele>
      </trkpt>
      <trkpt lat="46.043581" lon="7.909658">
        <time>1970-01-01T00:00:00+00:00</time>
        <ele>3182.0</ele>
      </trkpt>
      <trkpt lat="46.043116" lon="7.909407">
        <time>1970-01-01T00:00:00+00:00</time>
        <ele>3193.0</ele>
      </trkpt>
      <trkpt lat="46.042549" lon="7.908875">
        <time>1970-01-01T00:00:00+00:00</time>
        <ele>3206.0</ele>
      </trkpt>
      <trkpt lat="46.041863" lon="7.908401">
        <time>1970-01-01T00:00:00+00:00</time>
        <ele>3220.0</ele>
      </trkpt>
      <trkpt lat="46.041457" lon="7.907993">
        <time>1970-01-01T00:00:00+00:00</time>
        <ele>3228.0</ele>
      </trkpt>
      <trkpt lat="46.040741" lon="7.907462">
        <time>1970-01-01T00:00:00+00:00</time>
        <ele>3234.0</ele>
      </trkpt>
      <trkpt lat="46.039691" lon="7.906056">
        <time>1970-01-01T00:00:00+00:00</time>
        <ele>3237.0</ele>
      </trkpt>
      <trkpt lat="46.037805" lon="7.903862">
        <time>1970-01-01T00:00:00+00:00</time>
        <ele>3253.0</ele>
      </trkpt>
      <trkpt lat="46.036326" lon="7.90245">
        <time>1970-01-01T00:00:00+00:00</time>
        <ele>3277.0</ele>
      </trkpt>
      <trkpt lat="46.033492" lon="7.900343">
        <time>1970-01-01T00:00:00+00:00</time>
        <ele>3304.0</ele>
      </trkpt>
      <trkpt lat="46.033114" lon="7.900075">
        <time>1970-01-01T00:00:00+00:00</time>
        <ele>3309.0</ele>
      </trkpt>
      <trkpt lat="46.032975" lon="7.900057">
        <time>1970-01-01T00:00:00+00:00</time>
        <ele>3310.0</ele>
      </trkpt>
      <trkpt lat="46.032938" lon="7.899938">
        <time>1970-01-01T00:00:00+00:00</time>
        <ele>3312.0</ele>
      </trkpt>
      <trkpt lat="46.032543" lon="7.899676">
        <time>1970-01-01T00:00:00+00:00</time>
        <ele>3321.0</ele>
      </trkpt>
      <trkpt lat="46.032097" lon="7.899523">
        <time>1970-01-01T00:00:00+00:00</time>
        <ele>3334.0</ele>
      </trkpt>
      <trkpt lat="46.031741" lon="7.899535">
        <time>1970-01-01T00:00:00+00:00</time>
        <ele>3343.0</ele>
      </trkpt>
      <trkpt lat="46.031755" lon="7.898556">
        <time>1970-01-01T00:00:00+00:00</time>
        <ele>3363.0</ele>
      </trkpt>
      <trkpt lat="46.030873" lon="7.897973">
        <time>1970-01-01T00:00:00+00:00</time>
        <ele>3389.0</ele>
      </trkpt>
      <trkpt lat="46.030821" lon="7.897239">
        <time>1970-01-01T00:00:00+00:00</time>
        <ele>3405.0</ele>
      </trkpt>
      <trkpt lat="46.030836" lon="7.896529">
        <time>1970-01-01T00:00:00+00:00</time>
        <ele>3418.0</ele>
      </trkpt>
      <trkpt lat="46.030733" lon="7.89599">
        <time>1970-01-01T00:00:00+00:00</time>
        <ele>3429.0</ele>
      </trkpt>
      <trkpt lat="46.030596" lon="7.895928">
        <time>1970-01-01T00:00:00+00:00</time>
        <ele>3433.0</ele>
      </trkpt>
      <trkpt lat="46.030368" lon="7.895682">
        <time>1970-01-01T00:00:00+00:00</time>
        <ele>3439.0</ele>
      </trkpt>
      <trkpt lat="46.030201" lon="7.895338">
        <time>1970-01-01T00:00:00+00:00</time>
        <ele>3444.0</ele>
      </trkpt>
      <trkpt lat="46.029771" lon="7.894819">
        <time>1970-01-01T00:00:00+00:00</time>
        <ele>3454.0</ele>
      </trkpt>
      <trkpt lat="46.028899" lon="7.893979">
        <time>1970-01-01T00:00:00+00:00</time>
        <ele>3469.0</ele>
      </trkpt>
      <trkpt lat="46.028044" lon="7.893295">
        <time>1970-01-01T00:00:00+00:00</time>
        <ele>3484.0</ele>
      </trkpt>
      <trkpt lat="46.025957" lon="7.892062">
        <time>1970-01-01T00:00:00+00:00</time>
        <ele>3528.0</ele>
      </trkpt>
      <trkpt lat="46.025159" lon="7.89136">
        <time>1970-01-01T00:00:00+00:00</time>
        <ele>3552.0</ele>
      </trkpt>
      <trkpt lat="46.024487" lon="7.891491">
        <time>1970-01-01T00:00:00+00:00</time>
        <ele>3567.0</ele>
      </trkpt>
      <trkpt lat="46.024211" lon="7.891171">
        <time>1970-01-01T00:00:00+00:00</time>
        <ele>3578.0</ele>
      </trkpt>
      <trkpt lat="46.024025" lon="7.89112">
        <time>1970-01-01T00:00:00+00:00</time>
        <ele>3584.0</ele>
      </trkpt>
      <trkpt lat="46.023935" lon="7.890873">
        <time>1970-01-01T00:00:00+00:00</time>
        <ele>3589.0</ele>
      </trkpt>
      <trkpt lat="46.023745" lon="7.890906">
        <time>1970-01-01T00:00:00+00:00</time>
        <ele>3593.0</ele>
      </trkpt>
      <trkpt lat="46.023542" lon="7.890757">
        <time>1970-01-01T00:00:00+00:00</time>
        <ele>3600.0</ele>
      </trkpt>
      <trkpt lat="46.023077" lon="7.889848">
        <time>1970-01-01T00:00:00+00:00</time>
        <ele>3629.0</ele>
      </trkpt>
      <trkpt lat="46.022685" lon="7.88989">
        <time>1970-01-01T00:00:00+00:00</time>
        <ele>3637.0</ele>
      </trkpt>
      <trkpt lat="46.022241" lon="7.889836">
        <time>1970-01-01T00:00:00+00:00</time>
        <ele>3646.0</ele>
      </trkpt>
      <trkpt lat="46.021488" lon="7.889489">
        <time>1970-01-01T00:00:00+00:00</time>
        <ele>3663.0</ele>
      </trkpt>
      <trkpt lat="46.020826" lon="7.888775">
        <time>1970-01-01T00:00:00+00:00</time>
        <ele>3685.0</ele>
      </trkpt>
      <trkpt lat="46.020473" lon="7.888106">
        <time>1970-01-01T00:00:00+00:00</time>
        <ele>3709.0</ele>
      </trkpt>
      <trkpt lat="46.01989" lon="7.888051">
        <time>1970-01-01T00:00:00+00:00</time>
        <ele>3730.0</ele>
      </trkpt>
      <trkpt lat="46.019812" lon="7.887566">
        <time>1970-01-01T00:00:00+00:00</time>
        <ele>3746.0</ele>
      </trkpt>
      <trkpt lat="46.019668" lon="7.887676">
        <time>1970-01-01T00:00:00+00:00</time>
        <ele>3745.0</ele>
      </trkpt>
      <trkpt lat="46.019678" lon="7.887607">
        <time>1970-01-01T00:00:00+00:00</time>
        <ele>3747.0</ele>
      </trkpt>
      <trkpt lat="46.019628" lon="7.887605">
        <time>1970-01-01T00:00:00+00:00</time>
        <ele>3748.0</ele>
      </trkpt>
      <trkpt lat="46.019339" lon="7.887756">
        <time>1970-01-01T00:00:00+00:00</time>
        <ele>3749.0</ele>
      </trkpt>
      <trkpt lat="46.019338" lon="7.887524">
        <time>1970-01-01T00:00:00+00:00</time>
        <ele>3752.0</ele>
      </trkpt>
      <trkpt lat="46.018809" lon="7.887722">
        <time>1970-01-01T00:00:00+00:00</time>
        <ele>3763.0</ele>
      </trkpt>
      <trkpt lat="46.018446" lon="7.888008">
        <time>1970-01-01T00:00:00+00:00</time>
        <ele>3772.0</ele>
      </trkpt>
      <trkpt lat="46.017756" lon="7.88948">
        <time>1970-01-01T00:00:00+00:00</time>
        <ele>3810.0</ele>
      </trkpt>
      <trkpt lat="46.017361" lon="7.890004">
        <time>1970-01-01T00:00:00+00:00</time>
        <ele>3829.0</ele>
      </trkpt>
      <trkpt lat="46.017067" lon="7.89025">
        <time>1970-01-01T00:00:00+00:00</time>
        <ele>3843.0</ele>
      </trkpt>
      <trkpt lat="46.01697" lon="7.890439">
        <time>1970-01-01T00:00:00+00:00</time>
        <ele>3847.0</ele>
      </trkpt>
      <trkpt lat="46.016844" lon="7.891098">
        <time>1970-01-01T00:00:00+00:00</time>
        <ele>3861.0</ele>
      </trkpt>
      <trkpt lat="46.016653" lon="7.890813">
        <time>1970-01-01T00:00:00+00:00</time>
        <ele>3875.0</ele>
      </trkpt>
      <trkpt lat="46.0166" lon="7.891182">
        <time>1970-01-01T00:00:00+00:00</time>
        <ele>3884.0</ele>
      </trkpt>
      <trkpt lat="46.016475" lon="7.891019">
        <time>1970-01-01T00:00:00+00:00</time>
        <ele>3890.0</ele>
      </trkpt>
      <trkpt lat="46.016422" lon="7.890745">
        <time>1970-01-01T00:00:00+00:00</time>
        <ele>3892.0</ele>
      </trkpt>
      <trkpt lat="46.016347" lon="7.891075">
        <time>1970-01-01T00:00:00+00:00</time>
        <ele>3899.0</ele>
      </trkpt>
      <trkpt lat="46.016187" lon="7.890891">
        <time>1970-01-01T00:00:00+00:00</time>
        <ele>3908.0</ele>
      </trkpt>
      <trkpt lat="46.016135" lon="7.89121">
        <time>1970-01-01T00:00:00+00:00</time>
        <ele>3913.0</ele>
      </trkpt>
      <trkpt lat="46.015718" lon="7.890929">
        <time>1970-01-01T00:00:00+00:00</time>
        <ele>3914.0</ele>
      </trkpt>
      <trkpt lat="46.015607" lon="7.890935">
        <time>1970-01-01T00:00:00+00:00</time>
        <ele>3910.0</ele>
      </trkpt>
      <trkpt lat="46.015642" lon="7.890905">
        <time>1970-01-01T00:00:00+00:00</time>
        <ele>3911.0</ele>
      </trkpt>
      <trkpt lat="46.015691" lon="7.890962">
        <time>1970-01-01T00:00:00+00:00</time>
        <ele>3915.0</ele>
      </trkpt>
      <trkpt lat="46.015641" lon="7.890936">
        <time>1970-01-01T00:00:00+00:00</time>
        <ele>3911.0</ele>
      </trkpt>
      <trkpt lat="46.015662" lon="7.89097">
        <time>1970-01-01T00:00:00+00:00</time>
        <ele>3914.0</ele>
      </trkpt>
      <trkpt lat="46.015569" lon="7.89103">
        <time>1970-01-01T00:00:00+00:00</time>
        <ele>3911.0</ele>
      </trkpt>
      <trkpt lat="46.015333" lon="7.891513">
        <time>1970-01-01T00:00:00+00:00</time>
        <ele>3918.0</ele>
      </trkpt>
      <trkpt lat="46.01531" lon="7.891879">
        <time>1970-01-01T00:00:00+00:00</time>
        <ele>3927.0</ele>
      </trkpt>
      <trkpt lat="46.015349" lon="7.892159">
        <time>1970-01-01T00:00:00+00:00</time>
        <ele>3935.0</ele>
      </trkpt>
      <trkpt lat="46.015264" lon="7.892265">
        <time>1970-01-01T00:00:00+00:00</time>
        <ele>3934.0</ele>
      </trkpt>
      <trkpt lat="46.015265" lon="7.89267">
        <time>1970-01-01T00:00:00+00:00</time>
        <ele>3944.0</ele>
      </trkpt>
      <trkpt lat="46.01519" lon="7.893192">
        <time>1970-01-01T00:00:00+00:00</time>
        <ele>3959.0</ele>
      </trkpt>
      <trkpt lat="46.015323" lon="7.893785">
        <time>1970-01-01T00:00:00+00:00</time>
        <ele>3979.0</ele>
      </trkpt>
      <trkpt lat="46.0151" lon="7.893923">
        <time>1970-01-01T00:00:00+00:00</time>
        <ele>3981.0</ele>
      </trkpt>
      <trkpt lat="46.015157" lon="7.894309">
        <time>1970-01-01T00:00:00+00:00</time>
        <ele>3996.0</ele>
      </trkpt>
      <trkpt lat="46.014892" lon="7.894393">
        <time>1970-01-01T00:00:00+00:00</time>
        <ele>3998.0</ele>
      </trkpt>
      <trkpt lat="46.014867" lon="7.894499">
        <time>1970-01-01T00:00:00+00:00</time>
        <ele>4002.0</ele>
      </trkpt>
      <trkpt lat="46.014762" lon="7.894597">
        <time>1970-01-01T00:00:00+00:00</time>
        <ele>4006.0</ele>
      </trkpt>
      <trkpt lat="46.014781" lon="7.895008">
        <time>1970-01-01T00:00:00+00:00</time>
        <ele>4023.0</ele>
      </trkpt>
      <trkpt lat="46.01472" lon="7.895606">
        <time>1970-01-01T00:00:00+00:00</time>
        <ele>4038.0</ele>
      </trkpt>
      <trkpt lat="46.014434" lon="7.895933">
        <time>1970-01-01T00:00:00+00:00</time>
        <ele>4051.0</ele>
      </trkpt>
      <trkpt lat="46.014089" lon="7.896168">
        <time>1970-01-01T00:00:00+00:00</time>
        <ele>4062.0</ele>
      </trkpt>
      <trkpt lat="46.013791" lon="7.896196">
        <time>1970-01-01T00:00:00+00:00</time>
        <ele>4068.0</ele>
      </trkpt>
      <trkpt lat="46.013388" lon="7.897242">
        <time>1970-01-01T00:00:00+00:00</time>
        <ele>4093.0</ele>
      </trkpt>
      <trkpt lat="46.013228" lon="7.897437">
        <time>1970-01-01T00:00:00+00:00</time>
        <ele>4099.0</ele>
      </trkpt>
      <trkpt lat="46.013041" lon="7.897453">
        <time>1970-01-01T00:00:00+00:00</time>
        <ele>4100.0</ele>
      </trkpt>
      <trkpt lat="46.012951" lon="7.897683">
        <time>1970-01-01T00:00:00+00:00</time>
        <ele>4101.0</ele>
      </trkpt>
      <trkpt lat="46.013089" lon="7.899298">
        <time>1970-01-01T00:00:00+00:00</time>
        <ele>4115.0</ele>
      </trkpt>
      <trkpt lat="46.013237" lon="7.900192">
        <time>1970-01-01T00:00:00+00:00</time>
        <ele>4130.0</ele>
      </trkpt>
      <trkpt lat="46.013389" lon="7.900491">
        <time>1970-01-01T00:00:00+00:00</time>
        <ele>4136.0</ele>
      </trkpt>
      <trkpt lat="46.013882" lon="7.900655">
        <time>1970-01-01T00:00:00+00:00</time>
        <ele>4149.0</ele>
      </trkpt>
      <trkpt lat="46.013784" lon="7.90083">
        <time>1970-01-01T00:00:00+00:00</time>
        <ele>4153.0</ele>
      </trkpt>
      <trkpt lat="46.013838" lon="7.90081">
        <time>1970-01-01T00:00:00+00:00</time>
        <ele>4153.0</ele>
      </trkpt>
      <trkpt lat="46.013858" lon="7.900889">
        <time>1970-01-01T00:00:00+00:00</time>
        <ele>4155.0</ele>
      </trkpt>
      <trkpt lat="46.013349" lon="7.901722">
        <time>1970-01-01T00:00:00+00:00</time>
        <ele>4174.0</ele>
      </trkpt>
      <trkpt lat="46.013481" lon="7.901006">
        <time>1970-01-01T00:00:00+00:00</time>
        <ele>4155.0</ele>
      </trkpt>
      <trkpt lat="46.013574" lon="7.900763">
        <time>1970-01-01T00:00:00+00:00</time>
        <ele>4146.0</ele>
      </trkpt>
      <trkpt lat="46.013508" lon="7.900643">
        <time>1970-01-01T00:00:00+00:00</time>
        <ele>4141.0</ele>
      </trkpt>
      <trkpt lat="46.013468" lon="7.900474">
        <time>1970-01-01T00:00:00+00:00</time>
        <ele>4137.0</ele>
      </trkpt>
      <trkpt lat="46.013511" lon="7.900447">
        <time>1970-01-01T00:00:00+00:00</time>
        <ele>4137.0</ele>
      </trkpt>
      <trkpt lat="46.013421" lon="7.90017">
        <time>1970-01-01T00:00:00+00:00</time>
        <ele>4131.0</ele>
      </trkpt>
      <trkpt lat="46.013482" lon="7.899984">
        <time>1970-01-01T00:00:00+00:00</time>
        <ele>4127.0</ele>
      </trkpt>
      <trkpt lat="46.013461" lon="7.89966">
        <time>1970-01-01T00:00:00+00:00</time>
        <ele>4123.0</ele>
      </trkpt>
      <trkpt lat="46.013417" lon="7.89969">
        <time>1970-01-01T00:00:00+00:00</time>
        <ele>4123.0</ele>
      </trkpt>
      <trkpt lat="46.013291" lon="7.899119">
        <time>1970-01-01T00:00:00+00:00</time>
        <ele>4118.0</ele>
      </trkpt>
      <trkpt lat="46.013254" lon="7.898377">
        <time>1970-01-01T00:00:00+00:00</time>
        <ele>4110.0</ele>
      </trkpt>
      <trkpt lat="46.013514" lon="7.897668">
        <time>1970-01-01T00:00:00+00:00</time>
        <ele>4098.0</ele>
      </trkpt>
      <trkpt lat="46.013638" lon="7.896973">
        <time>1970-01-01T00:00:00+00:00</time>
        <ele>4081.0</ele>
      </trkpt>
      <trkpt lat="46.013817" lon="7.896539">
        <time>1970-01-01T00:00:00+00:00</time>
        <ele>4071.0</ele>
      </trkpt>
      <trkpt lat="46.013815" lon="7.896265">
        <time>1970-01-01T00:00:00+00:00</time>
        <ele>4069.0</ele>
      </trkpt>
      <trkpt lat="46.014034" lon="7.896257">
        <time>1970-01-01T00:00:00+00:00</time>
        <ele>4064.0</ele>
      </trkpt>
      <trkpt lat="46.014373" lon="7.895837">
        <time>1970-01-01T00:00:00+00:00</time>
        <ele>4050.0</ele>
      </trkpt>
      <trkpt lat="46.01459" lon="7.895433">
        <time>1970-01-01T00:00:00+00:00</time>
        <ele>4036.0</ele>
      </trkpt>
      <trkpt lat="46.014725" lon="7.895001">
        <time>1970-01-01T00:00:00+00:00</time>
        <ele>4023.0</ele>
      </trkpt>
      <trkpt lat="46.014796" lon="7.894476">
        <time>1970-01-01T00:00:00+00:00</time>
        <ele>4001.0</ele>
      </trkpt>
      <trkpt lat="46.014865" lon="7.894487">
        <time>1970-01-01T00:00:00+00:00</time>
        <ele>4002.0</ele>
      </trkpt>
      <trkpt lat="46.014988" lon="7.894287">
        <time>1970-01-01T00:00:00+00:00</time>
        <ele>3995.0</ele>
      </trkpt>
      <trkpt lat="46.015044" lon="7.8937">
        <time>1970-01-01T00:00:00+00:00</time>
        <ele>3973.0</ele>
      </trkpt>
      <trkpt lat="46.015186" lon="7.893066">
        <time>1970-01-01T00:00:00+00:00</time>
        <ele>3955.0</ele>
      </trkpt>
      <trkpt lat="46.015207" lon="7.892531">
        <time>1970-01-01T00:00:00+00:00</time>
        <ele>3937.0</ele>
      </trkpt>
      <trkpt lat="46.015376" lon="7.89202">
        <time>1970-01-01T00:00:00+00:00</time>
        <ele>3932.0</ele>
      </trkpt>
      <trkpt lat="46.015312" lon="7.891696">
        <time>1970-01-01T00:00:00+00:00</time>
        <ele>3921.0</ele>
      </trkpt>
      <trkpt lat="46.015464" lon="7.891333">
        <time>1970-01-01T00:00:00+00:00</time>
        <ele>3919.0</ele>
      </trkpt>
      <trkpt lat="46.015501" lon="7.890897">
        <time>1970-01-01T00:00:00+00:00</time>
        <ele>3902.0</ele>
      </trkpt>
      <trkpt lat="46.015561" lon="7.890755">
        <time>1970-01-01T00:00:00+00:00</time>
        <ele>3901.0</ele>
      </trkpt>
      <trkpt lat="46.015656" lon="7.890797">
        <time>1970-01-01T00:00:00+00:00</time>
        <ele>3908.0</ele>
      </trkpt>
      <trkpt lat="46.015715" lon="7.890939">
        <time>1970-01-01T00:00:00+00:00</time>
        <ele>3914.0</ele>
      </trkpt>
      <trkpt lat="46.015659" lon="7.890941">
        <time>1970-01-01T00:00:00+00:00</time>
        <ele>3913.0</ele>
      </trkpt>
      <trkpt lat="46.016123" lon="7.891177">
        <time>1970-01-01T00:00:00+00:00</time>
        <ele>3913.0</ele>
      </trkpt>
      <trkpt lat="46.016218" lon="7.890939">
        <time>1970-01-01T00:00:00+00:00</time>
        <ele>3907.0</ele>
      </trkpt>
      <trkpt lat="46.016288" lon="7.891064">
        <time>1970-01-01T00:00:00+00:00</time>
        <ele>3903.0</ele>
      </trkpt>
      <trkpt lat="46.01635" lon="7.891002">
        <time>1970-01-01T00:00:00+00:00</time>
        <ele>3898.0</ele>
      </trkpt>
      <trkpt lat="46.016371" lon="7.890847">
        <time>1970-01-01T00:00:00+00:00</time>
        <ele>3896.0</ele>
      </trkpt>
      <trkpt lat="46.016507" lon="7.891023">
        <time>1970-01-01T00:00:00+00:00</time>
        <ele>3888.0</ele>
      </trkpt>
      <trkpt lat="46.016603" lon="7.890889">
        <time>1970-01-01T00:00:00+00:00</time>
        <ele>3881.0</ele>
      </trkpt>
      <trkpt lat="46.0167" lon="7.890997">
        <time>1970-01-01T00:00:00+00:00</time>
        <ele>3873.0</ele>
      </trkpt>
      <trkpt lat="46.016788" lon="7.890994">
        <time>1970-01-01T00:00:00+00:00</time>
        <ele>3864.0</ele>
      </trkpt>
      <trkpt lat="46.016837" lon="7.890892">
        <time>1970-01-01T00:00:00+00:00</time>
        <ele>3858.0</ele>
      </trkpt>
      <trkpt lat="46.016843" lon="7.890513">
        <time>1970-01-01T00:00:00+00:00</time>
        <ele>3856.0</ele>
      </trkpt>
      <trkpt lat="46.016896" lon="7.890447">
        <time>1970-01-01T00:00:00+00:00</time>
        <ele>3853.0</ele>
      </trkpt>
      <trkpt lat="46.016946" lon="7.890514">
        <time>1970-01-01T00:00:00+00:00</time>
        <ele>3848.0</ele>
      </trkpt>
      <trkpt lat="46.017149" lon="7.890009">
        <time>1970-01-01T00:00:00+00:00</time>
        <ele>3842.0</ele>
      </trkpt>
      <trkpt lat="46.017561" lon="7.889575">
        <time>1970-01-01T00:00:00+00:00</time>
        <ele>3819.0</ele>
      </trkpt>
      <trkpt lat="46.017687" lon="7.889248">
        <time>1970-01-01T00:00:00+00:00</time>
        <ele>3813.0</ele>
      </trkpt>
      <trkpt lat="46.017775" lon="7.88918">
        <time>1970-01-01T00:00:00+00:00</time>
        <ele>3808.0</ele>
      </trkpt>
      <trkpt lat="46.017809" lon="7.888829">
        <time>1970-01-01T00:00:00+00:00</time>
        <ele>3802.0</ele>
      </trkpt>
      <trkpt lat="46.017914" lon="7.888619">
        <time>1970-01-01T00:00:00+00:00</time>
        <ele>3793.0</ele>
      </trkpt>
      <trkpt lat="46.017991" lon="7.888736">
        <time>1970-01-01T00:00:00+00:00</time>
        <ele>3792.0</ele>
      </trkpt>
      <trkpt lat="46.017961" lon="7.8888">
        <time>1970-01-01T00:00:00+00:00</time>
        <ele>3794.0</ele>
      </trkpt>
      <trkpt lat="46.018071" lon="7.88878">
        <time>1970-01-01T00:00:00+00:00</time>
        <ele>3789.0</ele>
      </trkpt>
      <trkpt lat="46.017973" lon="7.888734">
        <time>1970-01-01T00:00:00+00:00</time>
        <ele>3793.0</ele>
      </trkpt>
      <trkpt lat="46.018049" lon="7.888793">
        <time>1970-01-01T00:00:00+00:00</time>
        <ele>3790.0</ele>
      </trkpt>
      <trkpt lat="46.018141" lon="7.888649">
        <time>1970-01-01T00:00:00+00:00</time>
        <ele>3784.0</ele>
      </trkpt>
      <trkpt lat="46.01819" lon="7.888661">
        <time>1970-01-01T00:00:00+00:00</time>
        <ele>3783.0</ele>
      </trkpt>
      <trkpt lat="46.01829" lon="7.888397">
        <time>1970-01-01T00:00:00+00:00</time>
        <ele>3777.0</ele>
      </trkpt>
      <trkpt lat="46.018326" lon="7.88811">
        <time>1970-01-01T00:00:00+00:00</time>
        <ele>3774.0</ele>
      </trkpt>
      <trkpt lat="46.01843" lon="7.888179">
        <time>1970-01-01T00:00:00+00:00</time>
        <ele>3773.0</ele>
      </trkpt>
      <trkpt lat="46.018458" lon="7.888325">
        <time>1970-01-01T00:00:00+00:00</time>
        <ele>3772.0</ele>
      </trkpt>
      <trkpt lat="46.01851" lon="7.888327">
        <time>1970-01-01T00:00:00+00:00</time>
        <ele>3771.0</ele>
      </trkpt>
      <trkpt lat="46.018565" lon="7.888195">
        <time>1970-01-01T00:00:00+00:00</time>
        <ele>3770.0</ele>
      </trkpt>
      <trkpt lat="46.01867" lon="7.888372">
        <time>1970-01-01T00:00:00+00:00</time>
        <ele>3766.0</ele>
      </trkpt>
      <trkpt lat="46.018855" lon="7.888233">
        <time>1970-01-01T00:00:00+00:00</time>
        <ele>3762.0</ele>
      </trkpt>
      <trkpt lat="46.01901" lon="7.888415">
        <time>1970-01-01T00:00:00+00:00</time>
        <ele>3753.0</ele>
      </trkpt>
      <trkpt lat="46.019044" lon="7.88854">
        <time>1970-01-01T00:00:00+00:00</time>
        <ele>3750.0</ele>
      </trkpt>
      <trkpt lat="46.019169" lon="7.888607">
        <time>1970-01-01T00:00:00+00:00</time>
        <ele>3744.0</ele>
      </trkpt>
      <trkpt lat="46.019154" lon="7.888724">
        <time>1970-01-01T00:00:00+00:00</time>
        <ele>3744.0</ele>
      </trkpt>
      <trkpt lat="46.01924" lon="7.888635">
        <time>1970-01-01T00:00:00+00:00</time>
        <ele>3741.0</ele>
      </trkpt>
      <trkpt lat="46.019321" lon="7.888722">
        <time>1970-01-01T00:00:00+00:00</time>
        <ele>3736.0</ele>
      </trkpt>
      <trkpt lat="46.019545" lon="7.888643">
        <time>1970-01-01T00:00:00+00:00</time>
        <ele>3727.0</ele>
      </trkpt>
      <trkpt lat="46.019861" lon="7.888795">
        <time>1970-01-01T00:00:00+00:00</time>
        <ele>3713.0</ele>
      </trkpt>
      <trkpt lat="46.019863" lon="7.888714">
        <time>1970-01-01T00:00:00+00:00</time>
        <ele>3714.0</ele>
      </trkpt>
      <trkpt lat="46.01982" lon="7.888819">
        <time>1970-01-01T00:00:00+00:00</time>
        <ele>3714.0</ele>
      </trkpt>
      <trkpt lat="46.020146" lon="7.888544">
        <time>1970-01-01T00:00:00+00:00</time>
        <ele>3708.0</ele>
      </trkpt>
      <trkpt lat="46.021011" lon="7.88851">
        <time>1970-01-01T00:00:00+00:00</time>
        <ele>3688.0</ele>
      </trkpt>
      <trkpt lat="46.021302" lon="7.888739">
        <time>1970-01-01T00:00:00+00:00</time>
        <ele>3676.0</ele>
      </trkpt>
      <trkpt lat="46.021453" lon="7.889014">
        <time>1970-01-01T00:00:00+00:00</time>
        <ele>3670.0</ele>
      </trkpt>
      <trkpt lat="46.021493" lon="7.889573">
        <time>1970-01-01T00:00:00+00:00</time>
        <ele>3662.0</ele>
      </trkpt>
      <trkpt lat="46.022011" lon="7.889461">
        <time>1970-01-01T00:00:00+00:00</time>
        <ele>3657.0</ele>
      </trkpt>
      <trkpt lat="46.022074" lon="7.889583">
        <time>1970-01-01T00:00:00+00:00</time>
        <ele>3654.0</ele>
      </trkpt>
      <trkpt lat="46.022068" lon="7.889763">
        <time>1970-01-01T00:00:00+00:00</time>
        <ele>3651.0</ele>
      </trkpt>
      <trkpt lat="46.022292" lon="7.889715">
        <time>1970-01-01T00:00:00+00:00</time>
        <ele>3647.0</ele>
      </trkpt>
      <trkpt lat="46.022404" lon="7.889805">
        <time>1970-01-01T00:00:00+00:00</time>
        <ele>3644.0</ele>
      </trkpt>
      <trkpt lat="46.02251" lon="7.889792">
        <time>1970-01-01T00:00:00+00:00</time>
        <ele>3642.0</ele>
      </trkpt>
      <trkpt lat="46.02277" lon="7.889524">
        <time>1970-01-01T00:00:00+00:00</time>
        <ele>3644.0</ele>
      </trkpt>
      <trkpt lat="46.022694" lon="7.889619">
        <time>1970-01-01T00:00:00+00:00</time>
        <ele>3643.0</ele>
      </trkpt>
      <trkpt lat="46.022855" lon="7.88972">
        <time>1970-01-01T00:00:00+00:00</time>
        <ele>3636.0</ele>
      </trkpt>
      <trkpt lat="46.023098" lon="7.890057">
        <time>1970-01-01T00:00:00+00:00</time>
        <ele>3624.0</ele>
      </trkpt>
      <trkpt lat="46.023325" lon="7.890182">
        <time>1970-01-01T00:00:00+00:00</time>
        <ele>3615.0</ele>
      </trkpt>
      <trkpt lat="46.023495" lon="7.890419">
        <time>1970-01-01T00:00:00+00:00</time>
        <ele>3606.0</ele>
      </trkpt>
      <trkpt lat="46.024446" lon="7.891322">
        <time>1970-01-01T00:00:00+00:00</time>
        <ele>3569.0</ele>
      </trkpt>
      <trkpt lat="46.024598" lon="7.891391">
        <time>1970-01-01T00:00:00+00:00</time>
        <ele>3565.0</ele>
      </trkpt>
      <trkpt lat="46.024767" lon="7.891585">
        <time>1970-01-01T00:00:00+00:00</time>
        <ele>3560.0</ele>
      </trkpt>
      <trkpt lat="46.024967" lon="7.891652">
        <time>1970-01-01T00:00:00+00:00</time>
        <ele>3554.0</ele>
      </trkpt>
      <trkpt lat="46.025123" lon="7.891975">
        <time>1970-01-01T00:00:00+00:00</time>
        <ele>3548.0</ele>
      </trkpt>
      <trkpt lat="46.025296" lon="7.891622">
        <time>1970-01-01T00:00:00+00:00</time>
        <ele>3548.0</ele>
      </trkpt>
      <trkpt lat="46.025243" lon="7.891722">
        <time>1970-01-01T00:00:00+00:00</time>
        <ele>3548.0</ele>
      </trkpt>
      <trkpt lat="46.025307" lon="7.89166">
        <time>1970-01-01T00:00:00+00:00</time>
        <ele>3547.0</ele>
      </trkpt>
      <trkpt lat="46.025515" lon="7.89176">
        <time>1970-01-01T00:00:00+00:00</time>
        <ele>3541.0</ele>
      </trkpt>
      <trkpt lat="46.025988" lon="7.892242">
        <time>1970-01-01T00:00:00+00:00</time>
        <ele>3526.0</ele>
      </trkpt>
      <trkpt lat="46.026321" lon="7.892321">
        <time>1970-01-01T00:00:00+00:00</time>
        <ele>3520.0</ele>
      </trkpt>
      <trkpt lat="46.027339" lon="7.892997">
        <time>1970-01-01T00:00:00+00:00</time>
        <ele>3498.0</ele>
      </trkpt>
      <trkpt lat="46.028335" lon="7.893452">
        <time>1970-01-01T00:00:00+00:00</time>
        <ele>3480.0</ele>
      </trkpt>
      <trkpt lat="46.029841" lon="7.894786">
        <time>1970-01-01T00:00:00+00:00</time>
        <ele>3453.0</ele>
      </trkpt>
      <trkpt lat="46.03007" lon="7.895232">
        <time>1970-01-01T00:00:00+00:00</time>
        <ele>3447.0</ele>
      </trkpt>
      <trkpt lat="46.030386" lon="7.895358">
        <time>1970-01-01T00:00:00+00:00</time>
        <ele>3440.0</ele>
      </trkpt>
      <trkpt lat="46.030389" lon="7.895419">
        <time>1970-01-01T00:00:00+00:00</time>
        <ele>3440.0</ele>
      </trkpt>
      <trkpt lat="46.030327" lon="7.895417">
        <time>1970-01-01T00:00:00+00:00</time>
        <ele>3441.0</ele>
      </trkpt>
      <trkpt lat="46.03104" lon="7.894897">
        <time>1970-01-01T00:00:00+00:00</time>
        <ele>3427.0</ele>
      </trkpt>
      <trkpt lat="46.031906" lon="7.894431">
        <time>1970-01-01T00:00:00+00:00</time>
        <ele>3418.0</ele>
      </trkpt>
      <trkpt lat="46.032397" lon="7.894229">
        <time>1970-01-01T00:00:00+00:00</time>
        <ele>3436.0</ele>
      </trkpt>
      <trkpt lat="46.032977" lon="7.894187">
        <time>1970-01-01T00:00:00+00:00</time>
        <ele>3470.0</ele>
      </trkpt>
      <trkpt lat="46.033443" lon="7.89444">
        <time>1970-01-01T00:00:00+00:00</time>
        <ele>3449.0</ele>
      </trkpt>
      <trkpt lat="46.033408" lon="7.894461">
        <time>1970-01-01T00:00:00+00:00</time>
        <ele>3446.0</ele>
      </trkpt>
      <trkpt lat="46.033459" lon="7.894701">
        <time>1970-01-01T00:00:00+00:00</time>
        <ele>3417.0</ele>
      </trkpt>
      <trkpt lat="46.033564" lon="7.894802">
        <time>1970-01-01T00:00:00+00:00</time>
        <ele>3404.0</ele>
      </trkpt>
      <trkpt lat="46.034153" lon="7.894905">
        <time>1970-01-01T00:00:00+00:00</time>
        <ele>3384.0</ele>
      </trkpt>
      <trkpt lat="46.034917" lon="7.895431">
        <time>1970-01-01T00:00:00+00:00</time>
        <ele>3380.0</ele>
      </trkpt>
      <trkpt lat="46.035809" lon="7.895618">
        <time>1970-01-01T00:00:00+00:00</time>
        <ele>3380.0</ele>
      </trkpt>
      <trkpt lat="46.036319" lon="7.895841">
        <time>1970-01-01T00:00:00+00:00</time>
        <ele>3368.0</ele>
      </trkpt>
      <trkpt lat="46.03731" lon="7.896594">
        <time>1970-01-01T00:00:00+00:00</time>
        <ele>3345.0</ele>
      </trkpt>
      <trkpt lat="46.038227" lon="7.897546">
        <time>1970-01-01T00:00:00+00:00</time>
        <ele>3321.0</ele>
      </trkpt>
      <trkpt lat="46.039326" lon="7.899582">
        <time>1970-01-01T00:00:00+00:00</time>
        <ele>3280.0</ele>
      </trkpt>
      <trkpt lat="46.040427" lon="7.90112">
        <time>1970-01-01T00:00:00+00:00</time>
        <ele>3267.0</ele>
      </trkpt>
      <trkpt lat="46.040909" lon="7.901882">
        <time>1970-01-01T00:00:00+00:00</time>
        <ele>3260.0</ele>
      </trkpt>
      <trkpt lat="46.041039" lon="7.902185">
        <time>1970-01-01T00:00:00+00:00</time>
        <ele>3259.0</ele>
      </trkpt>
      <trkpt lat="46.041098" lon="7.902095">
        <time>1970-01-01T00:00:00+00:00</time>
        <ele>3262.0</ele>
      </trkpt>
      <trkpt lat="46.041076" lon="7.902152">
        <time>1970-01-01T00:00:00+00:00</time>
        <ele>3260.0</ele>
      </trkpt>
      <trkpt lat="46.04116" lon="7.902219">
        <time>1970-01-01T00:00:00+00:00</time>
        <ele>3262.0</ele>
      </trkpt>
      <trkpt lat="46.041452" lon="7.903437">
        <time>1970-01-01T00:00:00+00:00</time>
        <ele>3253.0</ele>
      </trkpt>
      <trkpt lat="46.041638" lon="7.904643">
        <time>1970-01-01T00:00:00+00:00</time>
        <ele>3243.0</ele>
      </trkpt>
      <trkpt lat="46.041861" lon="7.905643">
        <time>1970-01-01T00:00:00+00:00</time>
        <ele>3239.0</ele>
      </trkpt>
      <trkpt lat="46.042306" lon="7.906755">
        <time>1970-01-01T00:00:00+00:00</time>
        <ele>3232.0</ele>
      </trkpt>
      <trkpt lat="46.042572" lon="7.907623">
        <time>1970-01-01T00:00:00+00:00</time>
        <ele>3212.0</ele>
      </trkpt>
      <trkpt lat="46.043145" lon="7.908783">
        <time>1970-01-01T00:00:00+00:00</time>
        <ele>3192.0</ele>
      </trkpt>
      <trkpt lat="46.043505" lon="7.909282">
        <time>1970-01-01T00:00:00+00:00</time>
        <ele>3183.0</ele>
      </trkpt>
      <trkpt lat="46.043789" lon="7.909805">
        <time>1970-01-01T00:00:00+00:00</time>
        <ele>3177.0</ele>
      </trkpt>
      <trkpt lat="46.044164" lon="7.910297">
        <time>1970-01-01T00:00:00+00:00</time>
        <ele>3170.0</ele>
      </trkpt>
      <trkpt lat="46.044108" lon="7.910323">
        <time>1970-01-01T00:00:00+00:00</time>
        <ele>3172.0</ele>
      </trkpt>
      <trkpt lat="46.044159" lon="7.910266">
        <time>1970-01-01T00:00:00+00:00</time>
        <ele>3170.0</ele>
      </trkpt>
      <trkpt lat="46.044979" lon="7.910878">
        <time>1970-01-01T00:00:00+00:00</time>
        <ele>3152.0</ele>
      </trkpt>
      <trkpt lat="46.047711" lon="7.913853">
        <time>1970-01-01T00:00:00+00:00</time>
        <ele>3108.0</ele>
      </trkpt>
      <trkpt lat="46.048162" lon="7.914883">
        <time>1970-01-01T00:00:00+00:00</time>
        <ele>3096.0</ele>
      </trkpt>
      <trkpt lat="46.048234" lon="7.91523">
        <time>1970-01-01T00:00:00+00:00</time>
        <ele>3092.0</ele>
      </trkpt>
      <trkpt lat="46.048696" lon="7.9163">
        <time>1970-01-01T00:00:00+00:00</time>
        <ele>3074.0</ele>
      </trkpt>
      <trkpt lat="46.048869" lon="7.916994">
        <time>1970-01-01T00:00:00+00:00</time>
        <ele>3063.0</ele>
      </trkpt>
      <trkpt lat="46.04924" lon="7.919583">
        <time>1970-01-01T00:00:00+00:00</time>
        <ele>3036.0</ele>
      </trkpt>
      <trkpt lat="46.049414" lon="7.920187">
        <time>1970-01-01T00:00:00+00:00</time>
        <ele>3030.0</ele>
      </trkpt>
      <trkpt lat="46.049362" lon="7.920269">
        <time>1970-01-01T00:00:00+00:00</time>
        <ele>3030.0</ele>
      </trkpt>
      <trkpt lat="46.049314" lon="7.920248">
        <time>1970-01-01T00:00:00+00:00</time>
        <ele>3031.0</ele>
      </trkpt>
      <trkpt lat="46.049574" lon="7.920908">
        <time>1970-01-01T00:00:00+00:00</time>
        <ele>3024.0</ele>
      </trkpt>
      <trkpt lat="46.049923" lon="7.922974">
        <time>1970-01-01T00:00:00+00:00</time>
        <ele>3000.0</ele>
      </trkpt>
      <trkpt lat="46.049839" lon="7.923805">
        <time>1970-01-01T00:00:00+00:00</time>
        <ele>2991.0</ele>
      </trkpt>
      <trkpt lat="46.050731" lon="7.925105">
        <time>1970-01-01T00:00:00+00:00</time>
        <ele>2971.0</ele>
      </trkpt>
      <trkpt lat="46.050974" lon="7.925548">
        <time>1970-01-01T00:00:00+00:00</time>
        <ele>2965.0</ele>
      </trkpt>
      <trkpt lat="46.051226" lon="7.926222">
        <time>1970-01-01T00:00:00+00:00</time>
        <ele>2956.0</ele>
      </trkpt>
      <trkpt lat="46.051261" lon="7.926583">
        <time>1970-01-01T00:00:00+00:00</time>
        <ele>2951.0</ele>
      </trkpt>
      <trkpt lat="46.051716" lon="7.928023">
        <time>1970-01-01T00:00:00+00:00</time>
        <ele>2939.0</ele>
      </trkpt>
      <trkpt lat="46.0519" lon="7.928234">
        <time>1970-01-01T00:00:00+00:00</time>
        <ele>2936.0</ele>
      </trkpt>
      <trkpt lat="46.052319" lon="7.928161">
        <time>1970-01-01T00:00:00+00:00</time>
        <ele>2934.0</ele>
      </trkpt>
      <trkpt lat="46.052692" lon="7.928261">
        <time>1970-01-01T00:00:00+00:00</time>
        <ele>2933.0</ele>
      </trkpt>
      <trkpt lat="46.052943" lon="7.928387">
        <time>1970-01-01T00:00:00+00:00</time>
        <ele>2933.0</ele>
      </trkpt>
      <trkpt lat="46.053055" lon="7.928624">
        <time>1970-01-01T00:00:00+00:00</time>
        <ele>2933.0</ele>
      </trkpt>
      <trkpt lat="46.053447" lon="7.928379">
        <time>1970-01-01T00:00:00+00:00</time>
        <ele>2934.0</ele>
      </trkpt>
      <trkpt lat="46.053779" lon="7.928041">
        <time>1970-01-01T00:00:00+00:00</time>
        <ele>2933.0</ele>
      </trkpt>
      <trkpt lat="46.05412" lon="7.92792">
        <time>1970-01-01T00:00:00+00:00</time>
        <ele>2925.0</ele>
      </trkpt>
      <trkpt lat="46.054383" lon="7.927955">
        <time>1970-01-01T00:00:00+00:00</time>
        <ele>2918.0</ele>
      </trkpt>
      <trkpt lat="46.055226" lon="7.928781">
        <time>1970-01-01T00:00:00+00:00</time>
        <ele>2927.0</ele>
      </trkpt>
      <trkpt lat="46.055434" lon="7.929092">
        <time>1970-01-01T00:00:00+00:00</time>
        <ele>2932.0</ele>
      </trkpt>
      <trkpt lat="46.056802" lon="7.929681">
        <time>1970-01-01T00:00:00+00:00</time>
        <ele>2948.0</ele>
      </trkpt>
      <trkpt lat="46.057351" lon="7.930032">
        <time>1970-01-01T00:00:00+00:00</time>
        <ele>2946.0</ele>
      </trkpt>
      <trkpt lat="46.05765" lon="7.930408">
        <time>1970-01-01T00:00:00+00:00</time>
        <ele>2944.0</ele>
      </trkpt>
      <trkpt lat="46.057816" lon="7.930957">
        <time>1970-01-01T00:00:00+00:00</time>
        <ele>2943.0</ele>
      </trkpt>
      <trkpt lat="46.058088" lon="7.931532">
        <time>1970-01-01T00:00:00+00:00</time>
        <ele>2942.0</ele>
      </trkpt>
      <trkpt lat="46.058307" lon="7.932329">
        <time>1970-01-01T00:00:00+00:00</time>
        <ele>2946.0</ele>
      </trkpt>
      <trkpt lat="46.058513" lon="7.932816">
        <time>1970-01-01T00:00:00+00:00</time>
        <ele>2958.0</ele>
      </trkpt>
      <trkpt lat="46.058604" lon="7.9334">
        <time>1970-01-01T00:00:00+00:00</time>
        <ele>2955.0</ele>
      </trkpt>
      <trkpt lat="46.05879" lon="7.934035">
        <time>1970-01-01T00:00:00+00:00</time>
        <ele>2962.0</ele>
      </trkpt>
      <trkpt lat="46.059181" lon="7.934767">
        <time>1970-01-01T00:00:00+00:00</time>
        <ele>2982.0</ele>
      </trkpt>
      <trkpt lat="46.059269" lon="7.93517">
        <time>1970-01-01T00:00:00+00:00</time>
        <ele>2981.0</ele>
      </trkpt>
      <trkpt lat="46.059436" lon="7.935012">
        <time>1970-01-01T00:00:00+00:00</time>
        <ele>2993.0</ele>
      </trkpt>
      <trkpt lat="46.059571" lon="7.935308">
        <time>1970-01-01T00:00:00+00:00</time>
        <ele>3000.0</ele>
      </trkpt>
      <trkpt lat="46.059701" lon="7.935236">
        <time>1970-01-01T00:00:00+00:00</time>
        <ele>3008.0</ele>
      </trkpt>
      <trkpt lat="46.059853" lon="7.935649">
        <time>1970-01-01T00:00:00+00:00</time>
        <ele>3011.0</ele>
      </trkpt>
      <trkpt lat="46.060023" lon="7.935478">
        <time>1970-01-01T00:00:00+00:00</time>
        <ele>3019.0</ele>
      </trkpt>
      <trkpt lat="46.059983" lon="7.93489">
        <time>1970-01-01T00:00:00+00:00</time>
        <ele>3028.0</ele>
      </trkpt>
    </trkseg>
  </trk>
</gpx>
